[Date Prev][Date Next][Thread Prev][Thread Next] - [Date Index][Thread Index][Author Index]
2 Line ISS Keps 8-20
- Subject: [sarex] 2 Line ISS Keps 8-20
- From: "Dave Larsen PhD" <doc@xxxxxxxxxxx>
- Date: Wed, 20 Aug 2003 05:45:39 -0700
ISS
1 25544U 98067A 03232.15815972 .00022018 00000-0 25817-3 0 3654
2 25544 51.6321 58.2144 0007661 145.6426 12.8374 15.61403418270997
----
Via the sarex mailing list at AMSAT.ORG courtesy of AMSAT-NA.
To unsubscribe, send "unsubscribe sarex" to Majordomo@amsat.org
AMSAT Home